Robstown, TX

6:23 AM CST on November 18, 2017 (GMT -0600)
Robstown

Weather History for KRBO - November, 2011

Change the Weather History Date:

Sunday, November 27, 2011

  Actual Average (KCRP) Record (KCRP)
Temperature  
Mean Temperature 52 °F -  
Max Temperature 62 °F 70 °F 93 °F (1994)
Min Temperature 38 °F 52 °F 31 °F (2010)
Degree Days  
Heating Degree Days 14    
Growing Degree Days 2 (Base 50)    
Moisture  
Dew Point 19 °F    
Average Humidity 29    
Maximum Humidity 52    
Minimum Humidity 12    
Precipitation  
Precipitation 0.00 in - - ()
Sea Level Pressure  
Sea Level Pressure 30.33 in    
Wind  
Wind Speed 17 mph (NW)    
Max Wind Speed 30 mph    
Max Gust Speed 40 mph    
Visibility 10 miles    
Events      
Averages and records for this station are not official NWS values.
T = Trace of Precipitation, MM = Missing Value Source: NWS Daily Summary

Daily Weather History Graph

Daily Weather History Graph

Search for Another Location

Airport or City:

Trip Planner

Search our weather history database for the weather conditions in past years. The results will help you decide how hot, cold, wet, or windy it might be!

Date:

Astronomy

Nov. 27, 2011 Rise Set
Actual Time 7:01 AM CST 5:35 PM CST
Civil Twilight 6:35 AM CST 6:00 PM CST
Nautical Twilight 6:07 AM CST 6:29 PM CST
Astronomical Twilight 5:38 AM CST 6:57 PM CST
Moon 9:24 AM CST (11/27) 8:16 PM CST (11/27)
Length of Visible Light 11h 24m
Length of Day
10h 34m
Waxing Crescent, 8% of the Moon is Illuminated
Nov 27
Waxing Crescent
Dec 2
First Quarter
Dec 10
Full
Dec 17
Last Quarter
Dec 24
New

Hourly Weather History & Observations

Time (CST) Temp. Windchill Dew Point Humidity Pressure Visibility Wind Dir Wind Speed Gust Speed Precip Events Conditions
12:15 AM 56.7 °F - 33.8 °F 42% 30.28 in 10.0 mi NNW 18.4 mph 25.3 mph N/A   Clear
12:55 AM 55.4 °F - 33.3 °F 43% 30.29 in 10.0 mi NNW 15.0 mph - N/A   Clear
1:15 AM 54.9 °F - 33.4 °F 44% 30.29 in 10.0 mi NNW 13.8 mph - N/A   Clear
1:35 AM 54.7 °F - 33.4 °F 45% 30.30 in 10.0 mi NW 16.1 mph - N/A   Clear
1:55 AM 54.1 °F - 32.9 °F 45% 30.31 in 10.0 mi NW 13.8 mph - N/A   Clear
2:35 AM 54.0 °F - 32.9 °F 45% 30.30 in 10.0 mi NW 17.3 mph 24.2 mph N/A   Clear
2:55 AM 53.1 °F - 32.7 °F 46% 30.31 in 10.0 mi NW 13.8 mph - N/A   Clear
3:15 AM 52.0 °F - 32.9 °F 48% 30.31 in 10.0 mi NW 13.8 mph - N/A   Clear
3:35 AM 51.4 °F - 32.9 °F 49% 30.31 in 10.0 mi NW 12.7 mph - N/A   Clear
3:55 AM 51.3 °F - 32.9 °F 50% 30.32 in 10.0 mi NW 11.5 mph 17.3 mph N/A   Clear
4:15 AM 50.9 °F - 32.9 °F 50% 30.32 in 10.0 mi NW 12.7 mph - N/A   Clear
4:35 AM 50.7 °F - 32.9 °F 51% 30.33 in 10.0 mi NW 12.7 mph - N/A   Clear
4:55 AM 50.2 °F - 32.9 °F 52% 30.33 in 10.0 mi NW 13.8 mph - N/A   Clear
5:15 AM 50.2 °F - 32.9 °F 52% 30.33 in 10.0 mi WNW 13.8 mph - N/A   Clear
5:35 AM 50.7 °F - 32.9 °F 51% 30.34 in 10.0 mi NW 17.3 mph - N/A   Clear
5:55 AM 50.9 °F - 32.5 °F 49% 30.34 in 10.0 mi WNW 19.6 mph - N/A   Clear
6:15 AM 50.0 °F - 32.4 °F 51% 30.35 in 10.0 mi WNW 12.7 mph - N/A   Clear
6:35 AM 49.5 °F - 32.2 °F 51% 30.36 in 10.0 mi WNW 13.8 mph - N/A   Clear
7:15 AM 49.8 °F - 31.6 °F 50% 30.37 in 10.0 mi NW 15.0 mph - N/A   Clear
7:35 AM 50.0 °F - 30.9 °F 48% 30.38 in 10.0 mi WNW 15.0 mph - N/A   Clear
7:55 AM 51.1 °F - 30.9 °F 46% 30.39 in 10.0 mi NW 18.4 mph 24.2 mph N/A   Clear
8:15 AM 52.2 °F - 29.7 °F 42% 30.40 in 10.0 mi NW 21.9 mph 25.3 mph N/A   Clear
8:35 AM 53.2 °F - 28.0 °F 38% 30.40 in 10.0 mi NW 24.2 mph 32.2 mph N/A   Clear
9:15 AM 55.2 °F - 25.3 °F 32% 30.42 in 10.0 mi NW 25.3 mph 33.4 mph N/A   Clear
9:35 AM 55.9 °F - 23.2 °F 28% 30.42 in 10.0 mi NNW 23.0 mph 34.5 mph N/A   Clear
9:55 AM 56.1 °F - 23.0 °F 28% 30.41 in 10.0 mi NW 27.6 mph 34.5 mph N/A   Clear
10:15 AM 56.5 °F - 22.5 °F 27% 30.41 in 10.0 mi NW 25.3 mph 34.5 mph N/A   Clear
10:35 AM 56.8 °F - 19.8 °F 24% 30.40 in 10.0 mi NW 25.3 mph 34.5 mph N/A   Clear
10:55 AM 57.2 °F - 20.1 °F 24% 30.40 in 10.0 mi NNW 27.6 mph 33.4 mph N/A   Clear
11:15 AM 57.9 °F - 19.8 °F 23% 30.38 in 10.0 mi NNW 25.3 mph 34.5 mph N/A   Clear
12:15 PM 59.9 °F - 13.1 °F 16% 30.36 in 10.0 mi NW 27.6 mph 36.8 mph N/A   Clear
12:35 PM 60.3 °F - 11.1 °F 14% 30.35 in 10.0 mi NNW 26.5 mph 36.8 mph N/A   Clear
12:55 PM 60.8 °F - 10.6 °F 14% 30.33 in 10.0 mi NNW 29.9 mph 38.0 mph N/A   Clear
1:15 PM 61.0 °F - 10.4 °F 14% 30.32 in 10.0 mi NNW 26.5 mph 40.3 mph N/A   Clear
1:35 PM 61.0 °F - 9.9 °F 13% 30.31 in 10.0 mi NW 25.3 mph 38.0 mph N/A   Clear
2:15 PM 61.5 °F - 10.2 °F 13% 30.30 in 10.0 mi NNW 28.8 mph 39.1 mph N/A   Clear
2:35 PM 61.7 °F - 10.4 °F 13% 30.29 in 10.0 mi NNW 26.5 mph 34.5 mph N/A   Clear
2:55 PM 61.9 °F - 10.2 °F 13% 30.29 in 10.0 mi NNW 26.5 mph 32.2 mph N/A   Clear
3:15 PM 62.2 °F - 10.4 °F 13% 30.28 in 10.0 mi NNW 23.0 mph 35.7 mph N/A   Clear
3:35 PM 62.2 °F - 9.9 °F 13% 30.28 in 10.0 mi NNW 20.7 mph 34.5 mph N/A   Clear
3:55 PM 62.1 °F - 8.8 °F 12% 30.28 in 10.0 mi NW 25.3 mph 34.5 mph N/A   Clear
4:15 PM 61.7 °F - 8.4 °F 12% 30.27 in 10.0 mi NNW 21.9 mph 31.1 mph N/A   Clear
4:35 PM 61.3 °F - 8.1 °F 12% 30.27 in 10.0 mi NW 21.9 mph 28.8 mph N/A   Clear
4:55 PM 60.8 °F - 7.9 °F 12% 30.28 in 10.0 mi NW 20.7 mph 26.5 mph N/A   Clear
5:15 PM 60.1 °F - 7.5 °F 12% 30.28 in 10.0 mi NNW 12.7 mph - N/A   Clear
5:35 PM 58.5 °F - 7.2 °F 13% 30.28 in 10.0 mi NNW 13.8 mph 17.3 mph N/A   Clear
5:55 PM 57.2 °F - 6.8 °F 13% 30.28 in 10.0 mi NNW 10.4 mph - N/A   Clear
6:15 PM 55.2 °F - 6.8 °F 14% 30.29 in 10.0 mi NNW 6.9 mph - N/A   Clear
6:35 PM 53.4 °F - 7.7 °F 16% 30.29 in 10.0 mi NW 5.8 mph - N/A   Clear
6:55 PM 52.0 °F - 7.7 °F 17% 30.30 in 10.0 mi NW 9.2 mph - N/A   Clear
7:15 PM 50.9 °F - 7.5 °F 17% 30.30 in 10.0 mi NW 9.2 mph - N/A   Clear
7:35 PM 50.5 °F - 7.5 °F 18% 30.31 in 10.0 mi NW 9.2 mph - N/A   Clear
7:55 PM 49.1 °F - 8.1 °F 19% 30.31 in 10.0 mi NNW 9.2 mph - N/A   Clear
8:15 PM 48.7 °F - 9.0 °F 20% 30.31 in 10.0 mi NW 8.1 mph - N/A   Clear
8:35 PM 45.9 °F 42.3 °F 8.1 °F 21% 30.32 in 10.0 mi NW 6.9 mph - N/A   Clear
8:55 PM 46.6 °F - 7.2 °F 20% 30.32 in 10.0 mi NW 9.2 mph - N/A   Clear
9:15 PM 46.4 °F 43.5 °F 7.0 °F 20% 30.32 in 10.0 mi NNW 5.8 mph - N/A   Clear
9:35 PM 44.8 °F 41.6 °F 7.3 °F 22% 30.33 in 10.0 mi WNW 5.8 mph - N/A   Clear
9:55 PM 44.4 °F 40.5 °F 7.5 °F 22% 30.32 in 10.0 mi NW 6.9 mph - N/A   Clear
10:15 PM 43.0 °F 39.5 °F 7.9 °F 24% 30.32 in 10.0 mi NW 5.8 mph - N/A   Clear
10:35 PM 41.7 °F 38.0 °F 8.1 °F 25% 30.32 in 10.0 mi NW 5.8 mph - N/A   Clear
10:55 PM 41.2 °F 38.2 °F 9.0 °F 27% 30.32 in 10.0 mi WNW 4.6 mph - N/A   Clear
11:15 PM 41.0 °F 39.0 °F 9.3 °F 27% 30.32 in 10.0 mi WNW 3.5 mph - N/A   Clear
11:35 PM 38.7 °F 34.3 °F 7.5 °F 28% 30.32 in 10.0 mi WNW 5.8 mph - N/A   Clear
11:55 PM 36.7 °F 34.1 °F 7.0 °F 29% 30.31 in 10.0 mi WNW 3.5 mph - N/A   Clear